Regional Weather Roundup
Issued by NWS

Home | Current Version | Previous Version | Graphics & Text | Print | Product List | Glossary On
Versions: 1 2 3 4 5 6 7 8 9 10 11 12 13 14 15 16 17 18 19 20 21 22 23 24 25 26 27 28 29 30 31 32 33 34 35 36 37 38 39 40 41 42 43 44 45 46 47 48 49 50
000
ASUS43 KDTX 252001
RWRMI
MICHIGAN HOURLY REGIONAL WEATHER ROUNDUP
NATIONAL WEATHER SERVICE DETROIT/PONTIAC MI
400 PM EDT TUE JUL 25 2017

NOTE: "FAIR" INDICATES FEW OR NO CLOUDS BELOW 12,000 FEET WITH NO
SIGNIFICANT WEATHER AND/OR OBSTRUCTION TO VISIBILITY.

MIZ047>049-052>055-059>063-066>070-074>076-081>083-252100-
SOUTHEAST LOWER MICHIGAN

CITY           SKY/WX    TMP DP  RH WIND       PRES   REMARKS
ADRIAN         CLOUDY    78  56  46 SE8       30.23S
ALMA           MOSUNNY   79  48  34 SW7       30.22F
ANN ARBOR      CLOUDY    78  53  41 E3        30.21F
BAD AXE        SUNNY     76  53  44 CALM      30.24S
CARO           MOSUNNY   78  53  41 CALM      30.22F
DETROIT CITY   MOSUNNY   76  53  44 E9        30.22S
DETROIT        PTSUNNY   78  54  43 SE7       30.22R
FLINT          PTSUNNY   78  51  38 CALM      30.23S
GROSSE ILE     CLOUDY    77  55  47 NE7       30.21S
HILLSDALE      PTSUNNY   77  50  38 SE8       30.23S
HOWELL         MOSUNNY   76  51  40 N5        30.23S

CITY           SKY/WX    TMP DP  RH WIND       PRES   REMARKS
JACKSON        SUNNY     80  48  32 NW5       30.23S
LAMBERTVILLE   MOSUNNY   75  59  57 E3        30.22S
LANSING        MOSUNNY   80  50  34 CALM      30.23F
LAPEER         FAIR      76  53  45 CALM      30.24S
MASON          MOSUNNY   76  53  44 E3        30.24S
MONROE         MOSUNNY   76  58  52 E6        30.21S
MT. CLEMENS    PTSUNNY   77  55  46 E8        30.21S
PONTIAC        CLOUDY    78  54  43 VRB5      30.22S
PORT HOPE        N/A     71  57  61 E5        30.23S
PORT HURON     SUNNY     77  55  47 CALM      30.23S
TRI CITIES     MOSUNNY   80  59  48 SW6       30.23F
MIDLAND        FAIR      79  52  38 CALM      30.21F
TROY           MOSUNNY   78  52  39 NE3       30.24S
SAGINAW HB     PTSUNNY   75  54  46 SE5       30.22F
$$
MIZ043>046-050>051-056>058-064>065-071>073-077>080-252100-
SOUTHWEST LOWER MICHIGAN

CITY           SKY/WX    TMP DP  RH WIND       PRES   REMARKS
BATTLE CREEK   SUNNY     80  50  34 CALM      30.23F
BENTON HARBOR  SUNNY     77  59  53 VRB5      30.21F
BIG RAPIDS     PTSUNNY   77  54  45 SW9G18    30.21F
COLDWATER      SUNNY     77  53  43 E6        30.22F
FREMONT        PTSUNNY   78  56  45 N7        30.21F
HOLLAND        SUNNY     79  59  50 VRB6      30.22F
GRAND RAPIDS   MOSUNNY   79  51  37 VRB3      30.22F
IONIA          FAIR      79  49  34 S7        30.22F
KALAMAZOO      SUNNY     80  47  31 CALM      30.22F
LUDINGTON      PTSUNNY   73  65  76 SW13G20   30.21F
MARSHALL       SUNNY     79  53  40 E7        30.22F
MOUNT PLEASANT SUNNY     79  49  34 S5        30.22F
MUSKEGON       PTSUNNY   77  57  50 W10       30.22F
SOUTH HAVEN    SUNNY     78  60  54 NW6       30.21F
$$
MIZ016>042-252100-
NORTHERN LOWER MICHIGAN

CITY           SKY/WX    TMP DP  RH WIND       PRES   REMARKS
ALPENA         SUNNY     77  58  51 SE14      30.21F
BEAVER ISLAND  SUNNY     77  56  49 SW9       30.20S
BELLAIRE       MOSUNNY   79  55  42 W5        30.19S
CADILLAC       PTSUNNY   78  52  39 W6        30.21F
CHARLEVOIX     SUNNY     78  54  43 W12       30.22F
FRANKFORT      SUNNY     75  58  56 SW10      30.20F
GAYLORD        PTSUNNY   79  51  37 SW12      30.21F
GRAYLING       SUNNY     80  52  37 SW6       30.21F
HARBOR SPRINGS SUNNY     78  55  44 W6        30.19F
HOUGHTON LAKE  MOSUNNY   79  51  37 SW6       30.22F
MANISTEE       MOSUNNY   76  62  62 W10       30.19F
OSCODA         SUNNY     75  56  50 S9        30.23S
PELLSTON       SUNNY     80  56  43 VRB6      30.19F
ROGERS CITY    SUNNY     74  55  51 E10       30.21F
TRAVERSE CITY  PTSUNNY   80  56  43 S3        30.17F
$$
MIZ007>008-015-252100-
EASTERN UPPER MICHIGAN

CITY           SKY/WX    TMP DP  RH WIND       PRES   REMARKS
KINROSS        SUNNY     76  56  49 S6G16     30.19S
MACKINAC ISLAN SUNNY     74  56  54 W8        30.20F
NEWBERRY       SUNNY     74  57  55 S15       30.17F
S. S. MARIE    SUNNY     78  54  43 S12       30.17S
MUNISING         N/A     80  56  43 SW13G24   30.11S
$$
MIZ004>006-011>014-085-252100-
CENTRAL UPPER MICHIGAN

CITY           SKY/WX    TMP DP  RH WIND       PRES   REMARKS
MANISTIQUE     SUNNY     70  65  85 S12G18    30.18S
ESCANABA       MOSUNNY   76  61  59 S18       30.14S
MENOMINEE      CLOUDY    77  62  59 S14G21    30.13F
SAWYER-GWINN   PTSUNNY   77  52  41 SW15      30.13F
$$
MIZ001>003-009>011-084-252100-
WESTERN UPPER MICHIGAN

CITY           SKY/WX    TMP DP  RH WIND       PRES   REMARKS
IRON MOUNTAIN  CLOUDY    75  52  44 S12       30.11F
HOUGHTON       CLOUDY    80  50  34 S15G22    30.04F
COPPER HARBOR    N/A     76  53  44 SW10G17   30.04F
IRONWOOD       CLOUDY    76  59  55 S12G20    30.03F
$$

ABBREVIATIONS USED IN REMARKS
   TC - TEMPERATURE IN CELSIUS
  WCI - WIND CHILL INDEX
   HX - HEAT INDEX
  VSB - VISIBILITY





USA.gov is the U.S. government's official web portal to all federal, state and local government web resources and services.